SWA833 KBOS-KMDW

Flight info

Callsign SWA833
Flight time 2h 11m
Altitude 30000
Route HYLND7 HYLND CAM Q822 GONZZ Q29 JHW DJB ASHEN PANGG7
Aircraft B738/M-SDE2E3FGHIRWXY/LB1

Departure

Time 2026-05-06 12:47
Airport Boston Logan International Airport (KBOS)

Arrival

Time 2026-05-06 14:58
Airport Chicago Midway International Airport (KMDW)
Time Latitude Longitude Altitude Speed Heading
2026-05-06 12:07 42.36572 -71.01381 25 ft 0 kts 298°
2026-05-06 12:33 42.36564 -71.01360 30 ft 4 kts 292°
2026-05-06 12:33 42.36566 -71.01337 30 ft 4 kts 240°
2026-05-06 12:34 42.36571 -71.01312 28 ft 4 kts 315°
2026-05-06 12:34 42.36556 -71.01310 28 ft 4 kts 25°
2026-05-06 12:34 42.36542 -71.01319 28 ft 0 kts 25°
2026-05-06 12:39 42.36547 -71.01316 29 ft 2 kts 25°
2026-05-06 12:39 42.36567 -71.01304 28 ft 3 kts 22°
2026-05-06 12:39 42.36587 -71.01293 26 ft 3 kts 22°
2026-05-06 12:39 42.36608 -71.01282 26 ft 3 kts 18°
2026-05-06 12:40 42.36631 -71.01274 26 ft 4 kts 14°
2026-05-06 12:40 42.36674 -71.01259 25 ft 8 kts 14°
2026-05-06 12:40 42.36736 -71.01244 26 ft 9 kts
2026-05-06 12:40 42.36794 -71.01274 27 ft 9 kts 332°
2026-05-06 12:41 42.36850 -71.01261 25 ft 9 kts 35°
2026-05-06 12:41 42.36898 -71.01212 27 ft 8 kts 40°
2026-05-06 12:41 42.36941 -71.01161 27 ft 8 kts 41°
2026-05-06 12:41 42.36987 -71.01114 27 ft 9 kts 32°
2026-05-06 12:42 42.37048 -71.01071 26 ft 11 kts 25°
2026-05-06 12:42 42.37125 -71.01022 26 ft 13 kts 25°
2026-05-06 12:42 42.37202 -71.00972 24 ft 12 kts 26°
2026-05-06 12:42 42.37277 -71.00922 24 ft 12 kts 25°
2026-05-06 12:43 42.37353 -71.00882 25 ft 12 kts 20°
2026-05-06 12:43 42.37427 -71.00844 26 ft 11 kts 20°
2026-05-06 12:43 42.37500 -71.00811 25 ft 11 kts 18°
2026-05-06 12:43 42.37571 -71.00777 27 ft 11 kts 19°
2026-05-06 12:44 42.37640 -71.00744 26 ft 10 kts 19°
2026-05-06 12:44 42.37717 -71.00707 29 ft 13 kts 20°
2026-05-06 12:44 42.37771 -71.00635 25 ft 9 kts 83°
2026-05-06 12:44 42.37768 -71.00605 24 ft 0 kts 107°
2026-05-06 12:45 42.37766 -71.00599 24 ft 3 kts 107°
2026-05-06 12:46 42.37753 -71.00554 26 ft 6 kts 120°
2026-05-06 12:46 42.37722 -71.00523 24 ft 6 kts 164°
2026-05-06 12:46 42.37678 -71.00528 26 ft 8 kts 195°
2026-05-06 12:46 42.37565 -71.00584 27 ft 44 kts 200°
2026-05-06 12:47 42.37040 -71.00838 27 ft 114 kts 200°
2026-05-06 12:47 42.36107 -71.01295 133 ft 161 kts 200°
2026-05-06 12:47 42.35103 -71.01813 1183 ft 145 kts 202°
2026-05-06 12:47 42.34107 -71.01777 2095 ft 162 kts 165°
2026-05-06 12:48 42.33158 -71.00569 2416 ft 209 kts 139°
2026-05-06 12:48 42.32257 -70.98960 2903 ft 218 kts 139°
2026-05-06 12:48 42.31434 -70.97168 3423 ft 237 kts 119°
2026-05-06 12:48 42.31224 -70.94834 3848 ft 267 kts 91°
2026-05-06 12:49 42.31570 -70.92224 4140 ft 295 kts 83°
2026-05-06 12:49 42.32032 -70.89495 4929 ft 299 kts 82°
2026-05-06 12:49 42.32488 -70.86743 5805 ft 301 kts 83°
2026-05-06 12:49 42.32924 -70.83958 6581 ft 305 kts 83°
2026-05-06 12:50 42.33353 -70.81127 7319 ft 310 kts 84°
2026-05-06 12:50 42.33853 -70.78257 8023 ft 320 kts 72°
2026-05-06 12:50 42.35078 -70.75700 8727 ft 331 kts 43°
2026-05-06 12:50 42.37031 -70.74084 9454 ft 331 kts 16°
2026-05-06 12:51 42.39231 -70.73150 10172 ft 334 kts 12°
2026-05-06 12:51 42.41490 -70.72263 10516 ft 353 kts 12°
2026-05-06 12:51 42.43953 -70.71589 10670 ft 369 kts 355°
2026-05-06 12:51 42.46502 -70.72077 10842 ft 374 kts 333°
2026-05-06 12:52 42.48908 -70.73551 11026 ft 388 kts 326°
2026-05-06 12:52 42.51370 -70.75237 11235 ft 403 kts 325°
2026-05-06 12:52 42.53648 -70.77396 11679 ft 396 kts 308°
2026-05-06 12:52 42.55322 -70.80347 12374 ft 386 kts 296°
2026-05-06 12:53 42.56791 -70.83399 13029 ft 388 kts 296°
2026-05-06 12:53 42.58243 -70.86447 13600 ft 392 kts 296°
2026-05-06 12:53 42.59733 -70.89565 14123 ft 395 kts 296°
2026-05-06 12:53 42.61239 -70.92696 14658 ft 398 kts 297°
2026-05-06 12:54 42.62762 -70.95842 15194 ft 400 kts 297°
2026-05-06 12:54 42.64296 -70.99001 15706 ft 403 kts 297°
2026-05-06 12:54 42.65850 -71.02199 16220 ft 406 kts 297°
2026-05-06 12:54 42.67406 -71.05400 16715 ft 408 kts 297°
2026-05-06 12:55 42.68979 -71.08640 17212 ft 411 kts 298°
2026-05-06 12:55 42.70558 -71.11896 17700 ft 414 kts 298°
2026-05-06 12:55 42.72145 -71.15171 18186 ft 416 kts 298°
2026-05-06 12:55 42.73741 -71.18470 18586 ft 419 kts 298°
2026-05-06 12:56 42.75343 -71.21784 18981 ft 421 kts 298°
2026-05-06 12:56 42.76953 -71.25125 19394 ft 423 kts 297°
2026-05-06 12:56 42.78224 -71.28690 19747 ft 416 kts 282°
2026-05-06 12:56 42.78783 -71.32517 20159 ft 412 kts 275°
2026-05-06 12:57 42.79196 -71.36387 20547 ft 414 kts 274°
2026-05-06 12:57 42.79598 -71.40285 20924 ft 417 kts 274°
2026-05-06 12:57 42.80003 -71.44205 21297 ft 419 kts 274°
2026-05-06 12:57 42.80417 -71.48140 21666 ft 421 kts 274°
2026-05-06 12:58 42.80840 -71.52092 22013 ft 423 kts 274°
2026-05-06 12:58 42.81270 -71.56068 22372 ft 425 kts 274°
2026-05-06 12:58 42.81704 -71.60056 22729 ft 426 kts 274°
2026-05-06 12:58 42.82141 -71.64064 23046 ft 429 kts 274°
2026-05-06 12:59 42.82578 -71.68082 23347 ft 431 kts 274°
2026-05-06 12:59 42.83018 -71.72131 23613 ft 433 kts 274°
2026-05-06 12:59 42.83458 -71.76191 23870 ft 434 kts 274°
2026-05-06 12:59 42.83897 -71.80262 24141 ft 435 kts 274°
2026-05-06 13:00 42.84330 -71.84299 24404 ft 436 kts 274°
2026-05-06 13:00 42.84769 -71.88394 24656 ft 438 kts 274°
2026-05-06 13:00 42.85207 -71.92501 24923 ft 439 kts 274°
2026-05-06 13:00 42.85645 -71.96626 25181 ft 440 kts 274°
2026-05-06 13:01 42.86082 -72.00753 25498 ft 440 kts 274°
2026-05-06 13:01 42.86517 -72.04867 25901 ft 437 kts 274°
2026-05-06 13:01 42.86948 -72.08955 26318 ft 435 kts 275°
2026-05-06 13:01 42.87375 -72.13024 26696 ft 433 kts 275°
2026-05-06 13:02 42.87799 -72.17085 27074 ft 432 kts 275°
2026-05-06 13:02 42.88220 -72.21133 27471 ft 430 kts 274°
2026-05-06 13:02 42.88638 -72.25163 27893 ft 429 kts 274°
2026-05-06 13:02 42.89052 -72.29176 28315 ft 427 kts 274°
2026-05-06 13:03 42.89464 -72.33174 28731 ft 425 kts 274°
2026-05-06 13:03 42.89872 -72.37158 29163 ft 423 kts 274°
2026-05-06 13:03 42.90277 -72.41124 29596 ft 421 kts 274°
2026-05-06 13:03 42.90680 -72.45075 29878 ft 422 kts 275°
2026-05-06 13:04 42.91082 -72.49048 29862 ft 424 kts 275°
2026-05-06 13:04 42.91884 -72.56992 29844 ft 419 kts 275°
2026-05-06 13:05 42.92671 -72.64843 29850 ft 417 kts 275°
2026-05-06 13:05 42.93449 -72.72665 29850 ft 416 kts 275°
2026-05-06 13:06 42.94221 -72.80476 29846 ft 415 kts 275°
2026-05-06 13:06 42.94987 -72.88287 29845 ft 415 kts 275°
2026-05-06 13:07 42.95747 -72.96090 29844 ft 415 kts 275°
2026-05-06 13:07 42.96501 -73.03885 29837 ft 414 kts 275°
2026-05-06 13:08 42.97248 -73.11661 29848 ft 413 kts 275°
2026-05-06 13:08 42.97988 -73.19429 29835 ft 412 kts 275°
2026-05-06 13:09 42.98717 -73.27125 29855 ft 411 kts 274°
2026-05-06 13:09 42.99420 -73.34856 29845 ft 409 kts 272°
2026-05-06 13:10 42.99650 -73.42582 29835 ft 406 kts 269°
2026-05-06 13:10 42.99816 -73.50279 29837 ft 405 kts 269°
2026-05-06 13:11 42.99989 -73.57966 29834 ft 404 kts 269°
2026-05-06 13:11 43.00166 -73.65635 29830 ft 404 kts 269°
2026-05-06 13:12 43.00342 -73.73300 29849 ft 403 kts 269°
2026-05-06 13:12 43.00512 -73.80944 29836 ft 403 kts 269°
2026-05-06 13:13 43.00677 -73.88583 29839 ft 402 kts 269°
2026-05-06 13:13 43.00836 -73.96212 29838 ft 401 kts 269°
2026-05-06 13:14 43.00991 -74.03843 29838 ft 402 kts 269°
2026-05-06 13:14 43.01140 -74.11475 29839 ft 402 kts 269°
2026-05-06 13:15 43.01285 -74.19118 29842 ft 403 kts 268°
2026-05-06 13:15 43.01432 -74.26788 29835 ft 405 kts 269°
2026-05-06 13:16 43.01753 -74.34485 29839 ft 407 kts 270°
2026-05-06 13:16 43.02134 -74.42212 29828 ft 408 kts 270°
2026-05-06 13:17 43.02495 -74.49956 29836 ft 409 kts 270°
2026-05-06 13:17 43.02837 -74.57719 29828 ft 410 kts 270°
2026-05-06 13:18 43.03169 -74.65495 29832 ft 410 kts 270°
2026-05-06 13:18 43.03494 -74.73232 29835 ft 411 kts 270°
2026-05-06 13:19 43.03817 -74.81031 29837 ft 411 kts 269°
2026-05-06 13:19 43.04133 -74.88813 29822 ft 410 kts 269°
2026-05-06 13:20 43.04445 -74.96588 29830 ft 409 kts 269°
2026-05-06 13:20 43.04701 -75.03089 29828 ft 408 kts 269°
2026-05-06 13:21 43.05001 -75.10839 29832 ft 408 kts 269°
2026-05-06 13:21 43.05294 -75.18526 29835 ft 407 kts 269°
2026-05-06 13:22 43.05585 -75.26260 29844 ft 407 kts 268°
2026-05-06 13:22 43.05849 -75.33984 29839 ft 406 kts 268°
2026-05-06 13:23 43.06062 -75.41693 29838 ft 406 kts 268°
2026-05-06 13:23 43.06266 -75.49407 29852 ft 406 kts 267°
2026-05-06 13:24 43.06471 -75.57117 29844 ft 406 kts 267°
2026-05-06 13:24 43.06673 -75.64838 29838 ft 406 kts 267°
2026-05-06 13:25 43.06871 -75.72551 29845 ft 406 kts 267°
2026-05-06 13:25 43.07063 -75.80266 29864 ft 406 kts 266°
2026-05-06 13:26 43.07251 -75.87993 29867 ft 407 kts 266°
2026-05-06 13:26 43.07373 -75.93167 29871 ft 407 kts 266°
2026-05-06 13:27 43.07522 -75.99590 29870 ft 407 kts 266°
2026-05-06 13:27 43.07697 -76.07318 29875 ft 406 kts 266°
2026-05-06 13:28 43.07866 -76.15029 29868 ft 405 kts 266°
2026-05-06 13:28 43.08030 -76.22733 29872 ft 405 kts 266°
2026-05-06 13:29 43.08188 -76.30420 29867 ft 404 kts 266°
2026-05-06 13:29 43.08340 -76.38045 29873 ft 404 kts 266°
2026-05-06 13:30 43.08488 -76.45723 29873 ft 404 kts 266°
2026-05-06 13:30 43.08631 -76.53406 29874 ft 404 kts 266°
2026-05-06 13:31 43.08769 -76.61095 29872 ft 404 kts 265°
2026-05-06 13:31 43.08023 -76.68580 29881 ft 395 kts 252°
2026-05-06 13:32 43.06114 -76.75565 29880 ft 391 kts 240°
2026-05-06 13:32 43.03420 -76.82042 29883 ft 393 kts 239°
2026-05-06 13:33 43.00744 -76.88420 29891 ft 394 kts 239°
2026-05-06 13:33 42.98033 -76.94927 29890 ft 395 kts 239°
2026-05-06 13:34 42.95315 -77.01461 29877 ft 396 kts 239°
2026-05-06 13:34 42.92594 -77.07994 29880 ft 396 kts 239°
2026-05-06 13:35 42.89863 -77.14532 29878 ft 397 kts 240°
2026-05-06 13:35 42.87412 -77.21276 29875 ft 398 kts 243°
2026-05-06 13:36 42.85055 -77.28114 29877 ft 399 kts 243°
2026-05-06 13:36 42.82687 -77.34955 29871 ft 399 kts 243°
2026-05-06 13:37 42.80303 -77.41801 29884 ft 401 kts 243°
2026-05-06 13:37 42.77906 -77.48649 29884 ft 401 kts 243°
2026-05-06 13:38 42.75496 -77.55516 29871 ft 402 kts 243°
2026-05-06 13:38 42.73086 -77.62363 29872 ft 401 kts 243°
2026-05-06 13:39 42.70690 -77.69155 29867 ft 401 kts 243°
2026-05-06 13:39 42.68273 -77.75990 29862 ft 401 kts 243°
2026-05-06 13:40 42.65899 -77.82688 29866 ft 401 kts 243°
2026-05-06 13:40 42.63472 -77.89518 29865 ft 402 kts 243°
2026-05-06 13:41 42.61039 -77.96347 29867 ft 402 kts 243°
2026-05-06 13:41 42.58609 -78.03154 29873 ft 401 kts 243°
2026-05-06 13:42 42.56171 -78.09965 29897 ft 401 kts 243°
2026-05-06 13:42 42.53728 -78.16773 29890 ft 402 kts 243°
2026-05-06 13:43 42.51278 -78.23582 29877 ft 401 kts 243°
2026-05-06 13:43 42.48829 -78.30376 29868 ft 401 kts 243°
2026-05-06 13:44 42.46372 -78.37172 29852 ft 402 kts 243°
2026-05-06 13:44 42.43913 -78.43960 29851 ft 402 kts 243°
2026-05-06 13:45 42.41450 -78.50740 29852 ft 401 kts 243°
2026-05-06 13:45 42.37752 -78.60892 29856 ft 401 kts 243°
2026-05-06 13:46 42.35284 -78.67648 29857 ft 401 kts 243°
2026-05-06 13:46 42.32807 -78.74412 29857 ft 401 kts 243°
2026-05-06 13:47 42.30378 -78.81029 29869 ft 401 kts 243°
2026-05-06 13:47 42.27888 -78.87796 29858 ft 403 kts 243°
2026-05-06 13:48 42.25389 -78.94573 29854 ft 403 kts 243°
2026-05-06 13:48 42.22889 -79.01338 29846 ft 404 kts 243°
2026-05-06 13:49 42.20375 -79.08124 29840 ft 404 kts 243°
2026-05-06 13:49 42.18096 -79.15026 29846 ft 404 kts 250°
2026-05-06 13:50 42.16278 -79.22188 29847 ft 404 kts 250°
2026-05-06 13:50 42.14459 -79.29292 29848 ft 404 kts 250°
2026-05-06 13:51 42.12614 -79.36440 29843 ft 403 kts 250°
2026-05-06 13:51 42.10765 -79.43564 29849 ft 403 kts 250°
2026-05-06 13:52 42.08912 -79.50677 29850 ft 402 kts 250°
2026-05-06 13:52 42.07056 -79.57783 29857 ft 402 kts 250°
2026-05-06 13:53 42.05198 -79.64874 29856 ft 402 kts 250°
2026-05-06 13:53 42.03337 -79.71957 29866 ft 402 kts 250°
2026-05-06 13:54 42.01469 -79.79046 29867 ft 402 kts 250°
2026-05-06 13:54 41.99599 -79.86121 29868 ft 402 kts 250°
2026-05-06 13:55 41.97724 -79.93195 29872 ft 402 kts 250°
2026-05-06 13:55 41.95847 -80.00258 29873 ft 401 kts 250°
2026-05-06 13:56 41.93966 -80.07316 29875 ft 401 kts 250°
2026-05-06 13:56 41.92084 -80.14352 29877 ft 400 kts 250°
2026-05-06 13:57 41.90200 -80.21378 29874 ft 400 kts 250°
2026-05-06 13:57 41.88312 -80.28400 29876 ft 400 kts 250°
2026-05-06 13:58 41.86422 -80.35411 29872 ft 399 kts 250°
2026-05-06 13:58 41.84529 -80.42411 29880 ft 399 kts 250°
2026-05-06 13:59 41.82633 -80.49400 29882 ft 398 kts 250°
2026-05-06 13:59 41.80752 -80.56317 29885 ft 397 kts 250°
2026-05-06 14:00 41.78894 -80.63129 29874 ft 397 kts 250°
2026-05-06 14:00 41.76995 -80.70073 29882 ft 396 kts 250°
2026-05-06 14:01 41.75098 -80.76993 29897 ft 396 kts 250°
2026-05-06 14:01 41.73197 -80.83903 29903 ft 395 kts 250°
2026-05-06 14:02 41.71297 -80.90794 29897 ft 394 kts 250°
2026-05-06 14:02 41.69397 -80.97665 29899 ft 393 kts 250°
2026-05-06 14:03 41.67499 -81.04512 29900 ft 392 kts 250°
2026-05-06 14:03 41.65601 -81.11339 29910 ft 391 kts 250°
2026-05-06 14:04 41.63706 -81.18135 29914 ft 390 kts 250°
2026-05-06 14:04 41.61811 -81.24915 29923 ft 389 kts 250°
2026-05-06 14:05 41.59916 -81.31676 29912 ft 389 kts 250°
2026-05-06 14:05 41.58016 -81.38435 29927 ft 388 kts 250°
2026-05-06 14:06 41.56115 -81.45184 29921 ft 388 kts 250°
2026-05-06 14:06 41.54533 -81.50782 29927 ft 387 kts 250°
2026-05-06 14:07 41.52630 -81.57504 29925 ft 387 kts 250°
2026-05-06 14:07 41.50412 -81.65314 29912 ft 387 kts 250°
2026-05-06 14:08 41.48815 -81.70926 29919 ft 386 kts 250°
2026-05-06 14:08 41.46908 -81.77608 29918 ft 386 kts 250°
2026-05-06 14:09 41.44998 -81.84284 29917 ft 385 kts 250°
2026-05-06 14:09 41.43083 -81.90958 29917 ft 385 kts 250°
2026-05-06 14:10 41.41170 -81.97611 29920 ft 384 kts 250°
2026-05-06 14:10 41.39259 -82.04245 29927 ft 383 kts 250°
2026-05-06 14:11 41.37355 -82.10867 29932 ft 382 kts 252°
2026-05-06 14:11 41.36292 -82.17776 29935 ft 382 kts 262°
2026-05-06 14:12 41.36262 -82.24871 29941 ft 385 kts 270°
2026-05-06 14:12 41.36695 -82.31986 29939 ft 386 kts 271°
2026-05-06 14:13 41.37131 -82.39105 29930 ft 386 kts 270°
2026-05-06 14:13 41.37550 -82.46220 29931 ft 386 kts 270°
2026-05-06 14:14 41.37960 -82.53353 29926 ft 386 kts 270°
2026-05-06 14:14 41.38363 -82.60490 29936 ft 387 kts 270°
2026-05-06 14:15 41.38762 -82.67638 29941 ft 387 kts 270°
2026-05-06 14:15 41.39154 -82.74748 29932 ft 388 kts 270°
2026-05-06 14:16 41.39545 -82.81916 29937 ft 388 kts 270°
2026-05-06 14:16 41.39932 -82.89096 29940 ft 389 kts 270°
2026-05-06 14:17 41.40314 -82.96281 29946 ft 389 kts 270°
2026-05-06 14:17 41.40694 -83.03486 29929 ft 390 kts 270°
2026-05-06 14:18 41.41069 -83.10686 29932 ft 390 kts 270°
2026-05-06 14:18 41.41439 -83.17888 29943 ft 390 kts 270°
2026-05-06 14:19 41.41805 -83.25093 29950 ft 390 kts 270°
2026-05-06 14:19 41.42166 -83.32298 29960 ft 390 kts 270°
2026-05-06 14:20 41.42523 -83.39516 29953 ft 390 kts 270°
2026-05-06 14:20 41.42876 -83.46736 29960 ft 390 kts 270°
2026-05-06 14:21 41.43225 -83.53957 29960 ft 391 kts 270°
2026-05-06 14:21 41.43569 -83.61186 29957 ft 391 kts 270°
2026-05-06 14:22 41.43908 -83.68407 29958 ft 391 kts 270°
2026-05-06 14:22 41.44244 -83.75637 29962 ft 391 kts 270°
2026-05-06 14:23 41.44574 -83.82870 29960 ft 391 kts 270°
2026-05-06 14:23 41.44900 -83.90101 29956 ft 391 kts 270°
2026-05-06 14:24 41.45222 -83.97337 29958 ft 391 kts 270°
2026-05-06 14:24 41.45539 -84.04563 29967 ft 391 kts 270°
2026-05-06 14:25 41.45852 -84.11802 29966 ft 391 kts 270°
2026-05-06 14:25 41.46159 -84.19029 29967 ft 391 kts 270°
2026-05-06 14:26 41.46463 -84.26270 29968 ft 391 kts 270°
2026-05-06 14:26 41.46760 -84.33455 29980 ft 391 kts 270°
2026-05-06 14:27 41.47055 -84.40701 29976 ft 391 kts 270°
2026-05-06 14:27 41.47345 -84.47943 29980 ft 391 kts 270°
2026-05-06 14:28 41.47631 -84.55185 29978 ft 391 kts 270°
2026-05-06 14:28 41.47913 -84.62429 29974 ft 391 kts 270°
2026-05-06 14:29 41.48199 -84.69675 29970 ft 391 kts 270°
2026-05-06 14:29 41.48496 -84.76919 29975 ft 392 kts 270°
2026-05-06 14:30 41.48789 -84.84164 29980 ft 391 kts 270°
2026-05-06 14:30 41.49076 -84.91424 29986 ft 392 kts 270°
2026-05-06 14:31 41.49358 -84.98675 29989 ft 392 kts 270°
2026-05-06 14:31 41.49635 -85.05928 29986 ft 391 kts 270°
2026-05-06 14:32 41.49908 -85.13176 29989 ft 391 kts 270°
2026-05-06 14:32 41.50176 -85.20423 29989 ft 391 kts 270°
2026-05-06 14:33 41.50306 -85.24001 29793 ft 393 kts 270°
2026-05-06 14:33 41.50440 -85.27717 28915 ft 395 kts 270°
2026-05-06 14:33 41.50569 -85.31307 28149 ft 391 kts 270°
2026-05-06 14:33 41.50695 -85.34817 27281 ft 391 kts 270°
2026-05-06 14:34 41.50821 -85.38397 26335 ft 392 kts 270°
2026-05-06 14:34 41.50950 -85.42078 25558 ft 390 kts 270°
2026-05-06 14:34 41.51075 -85.45675 24872 ft 387 kts 270°
2026-05-06 14:34 41.51198 -85.49238 24202 ft 383 kts 270°
2026-05-06 14:35 41.51316 -85.52731 23670 ft 378 kts 270°
2026-05-06 14:35 41.51431 -85.56216 23092 ft 378 kts 270°
2026-05-06 14:35 41.51545 -85.59754 22556 ft 385 kts 270°
2026-05-06 14:35 41.51653 -85.63347 22026 ft 389 kts 269°
2026-05-06 14:36 41.51735 -85.66943 21498 ft 386 kts 269°
2026-05-06 14:36 41.51806 -85.70497 20988 ft 381 kts 269°
2026-05-06 14:36 41.51873 -85.74016 20488 ft 378 kts 269°
2026-05-06 14:36 41.51941 -85.77517 20000 ft 376 kts 269°
2026-05-06 14:37 41.52008 -85.80995 19508 ft 375 kts 269°
2026-05-06 14:37 41.52075 -85.84471 19019 ft 373 kts 269°
2026-05-06 14:37 41.52142 -85.87924 18534 ft 372 kts 269°
2026-05-06 14:37 41.52208 -85.91368 17995 ft 372 kts 269°
2026-05-06 14:38 41.52273 -85.94818 17457 ft 371 kts 269°
2026-05-06 14:38 41.52338 -85.98247 16943 ft 369 kts 269°
2026-05-06 14:38 41.52401 -86.01661 16444 ft 367 kts 269°
2026-05-06 14:38 41.52462 -86.05062 15950 ft 366 kts 269°
2026-05-06 14:39 41.52515 -86.08451 15461 ft 365 kts 269°
2026-05-06 14:39 41.52516 -86.11833 14990 ft 364 kts 268°
2026-05-06 14:39 41.52494 -86.15203 14507 ft 363 kts 268°
2026-05-06 14:39 41.52468 -86.18567 14037 ft 362 kts 268°
2026-05-06 14:40 41.52444 -86.21922 13532 ft 362 kts 268°
2026-05-06 14:40 41.52423 -86.25273 13013 ft 360 kts 268°
2026-05-06 14:40 41.52404 -86.28603 12525 ft 358 kts 269°
2026-05-06 14:40 41.52387 -86.31916 12032 ft 356 kts 269°
2026-05-06 14:41 41.52368 -86.35197 11557 ft 349 kts 269°
2026-05-06 14:41 41.52349 -86.38402 11113 ft 343 kts 269°
2026-05-06 14:41 41.52329 -86.41497 10875 ft 331 kts 269°
2026-05-06 14:41 41.52308 -86.44554 10695 ft 319 kts 269°
2026-05-06 14:42 41.52289 -86.47430 10536 ft 309 kts 269°
2026-05-06 14:42 41.52268 -86.50250 10377 ft 300 kts 269°
2026-05-06 14:42 41.52248 -86.52990 10225 ft 291 kts 269°
2026-05-06 14:42 41.52228 -86.55653 10084 ft 283 kts 269°
2026-05-06 14:43 41.52208 -86.58234 9984 ft 272 kts 269°
2026-05-06 14:43 41.52188 -86.60699 9977 ft 259 kts 269°
2026-05-06 14:43 41.52168 -86.63052 9686 ft 252 kts 269°
2026-05-06 14:43 41.52148 -86.65352 9471 ft 247 kts 269°
2026-05-06 14:44 41.52129 -86.67644 9289 ft 247 kts 269°
2026-05-06 14:44 41.52109 -86.69944 9133 ft 249 kts 269°
2026-05-06 14:44 41.52088 -86.72269 8965 ft 251 kts 269°
2026-05-06 14:45 41.52045 -86.76916 8657 ft 251 kts 270°
2026-05-06 14:45 41.52023 -86.79248 8485 ft 251 kts 270°
2026-05-06 14:45 41.52000 -86.81572 8328 ft 251 kts 270°
2026-05-06 14:45 41.51978 -86.83899 8163 ft 251 kts 270°
2026-05-06 14:46 41.51954 -86.86227 8007 ft 250 kts 270°
2026-05-06 14:46 41.51930 -86.88541 7857 ft 250 kts 270°
2026-05-06 14:46 41.51905 -86.90856 7697 ft 250 kts 270°
2026-05-06 14:46 41.51882 -86.93173 7545 ft 250 kts 270°
2026-05-06 14:47 41.51859 -86.95495 7380 ft 250 kts 270°
2026-05-06 14:47 41.51829 -86.97803 7229 ft 248 kts 269°
2026-05-06 14:47 41.51797 -87.00108 7076 ft 248 kts 270°
2026-05-06 14:47 41.51771 -87.02420 6934 ft 251 kts 270°
2026-05-06 14:48 41.51742 -87.04738 6735 ft 248 kts 270°
2026-05-06 14:48 41.51717 -87.07011 6583 ft 242 kts 270°
2026-05-06 14:48 41.51691 -87.09243 6442 ft 240 kts 270°
2026-05-06 14:48 41.51663 -87.11477 6297 ft 241 kts 270°
2026-05-06 14:49 41.51633 -87.13688 6132 ft 242 kts 270°
2026-05-06 14:49 41.51670 -87.15972 6068 ft 244 kts 281°
2026-05-06 14:49 41.52221 -87.18085 6022 ft 245 kts 292°
2026-05-06 14:49 41.52861 -87.20183 6007 ft 245 kts 291°
2026-05-06 14:50 41.53485 -87.22284 6004 ft 242 kts 291°
2026-05-06 14:50 41.54101 -87.24369 5985 ft 241 kts 291°
2026-05-06 14:50 41.54716 -87.26454 6011 ft 242 kts 291°
2026-05-06 14:50 41.55334 -87.28559 6010 ft 245 kts 291°
2026-05-06 14:51 41.55957 -87.30679 5999 ft 245 kts 291°
2026-05-06 14:51 41.56528 -87.32622 5996 ft 245 kts 291°
2026-05-06 14:51 41.57151 -87.34741 5999 ft 245 kts 291°
2026-05-06 14:51 41.57772 -87.36856 6004 ft 245 kts 291°
2026-05-06 14:52 41.58390 -87.38970 5936 ft 245 kts 291°
2026-05-06 14:52 41.59014 -87.41110 5780 ft 246 kts 291°
2026-05-06 14:52 41.59628 -87.43209 5617 ft 240 kts 291°
2026-05-06 14:52 41.60226 -87.45254 5468 ft 234 kts 291°
2026-05-06 14:53 41.60807 -87.47252 5348 ft 228 kts 291°
2026-05-06 14:53 41.61379 -87.49216 5195 ft 227 kts 291°
2026-05-06 14:53 41.61946 -87.51155 5064 ft 221 kts 291°
2026-05-06 14:53 41.62617 -87.52996 4862 ft 224 kts 308°
2026-05-06 14:54 41.63697 -87.54516 4561 ft 227 kts 314°
2026-05-06 14:54 41.64802 -87.56029 4288 ft 228 kts 313°
2026-05-06 14:54 41.65925 -87.57541 4045 ft 229 kts 315°
2026-05-06 14:54 41.66676 -87.58524 3944 ft 229 kts 315°
2026-05-06 14:55 41.67815 -87.60089 3623 ft 230 kts 313°
2026-05-06 14:55 41.68908 -87.61639 3350 ft 228 kts 313°
2026-05-06 14:55 41.70003 -87.63188 2987 ft 225 kts 314°
2026-05-06 14:55 41.71035 -87.64647 2674 ft 211 kts 314°
2026-05-06 14:56 41.72021 -87.66040 2414 ft 195 kts 314°
2026-05-06 14:56 41.72925 -87.67314 2134 ft 184 kts 315°
2026-05-06 14:56 41.73773 -87.68515 1905 ft 172 kts 315°
2026-05-06 14:56 41.74559 -87.69624 1677 ft 161 kts 315°
2026-05-06 14:57 41.75291 -87.70658 1509 ft 144 kts 315°
2026-05-06 14:57 41.75973 -87.71619 1228 ft 147 kts 314°
2026-05-06 14:57 41.76664 -87.72585 1069 ft 146 kts 313°
2026-05-06 14:57 41.77360 -87.73577 845 ft 145 kts 313°
2026-05-06 14:58 41.78044 -87.74540 648 ft 139 kts 314°
2026-05-06 14:58 41.78645 -87.75381 627 ft 112 kts 315°
2026-05-06 14:58 41.78990 -87.75865 632 ft 42 kts 314°
2026-05-06 14:58 41.79105 -87.76010 635 ft 14 kts 348°
2026-05-06 14:59 41.79177 -87.75949 633 ft 5 kts 43°
2026-05-06 14:59 41.79193 -87.75929 634 ft 0 kts 43°
2026-05-06 14:59 41.79194 -87.75928 634 ft 1 kts 43°
2026-05-06 15:00 41.79211 -87.75876 630 ft 11 kts 81°
2026-05-06 15:00 41.79213 -87.75829 631 ft 0 kts 88°
2026-05-06 15:02 41.79213 -87.75810 631 ft 6 kts 97°
2026-05-06 15:02 41.79175 -87.75732 628 ft 12 kts 130°
2026-05-06 15:02 41.79117 -87.75648 635 ft 12 kts 135°
2026-05-06 15:03 41.79058 -87.75569 628 ft 12 kts 132°
2026-05-06 15:03 41.79002 -87.75487 628 ft 12 kts 133°
2026-05-06 15:03 41.78946 -87.75410 628 ft 12 kts 135°
2026-05-06 15:03 41.78890 -87.75332 628 ft 12 kts 133°
2026-05-06 15:04 41.78831 -87.75246 630 ft 13 kts 133°
2026-05-06 15:04 41.78768 -87.75159 627 ft 13 kts 134°
2026-05-06 15:04 41.78705 -87.75074 627 ft 13 kts 137°
2026-05-06 15:04 41.78644 -87.74986 630 ft 13 kts 134°
2026-05-06 15:05 41.78594 -87.74907 631 ft 10 kts 106°
2026-05-06 15:05 41.78626 -87.74831 630 ft 10 kts 40°
2026-05-06 15:05 41.78684 -87.74786 628 ft 10 kts 23°
2026-05-06 15:05 41.78737 -87.74734 632 ft 9 kts 43°
2026-05-06 15:06 41.78784 -87.74674 630 ft 9 kts 43°
2026-05-06 15:06 41.78797 -87.74601 631 ft 9 kts 118°
2026-05-06 15:06 41.78780 -87.74573 633 ft 2 kts 130°
2026-05-06 15:06 41.78771 -87.74551 628 ft 1 kts 117°
2026-05-06 15:07 41.78766 -87.74538 628 ft 1 kts 116°
2026-05-06 15:07 41.78764 -87.74533 628 ft 0 kts 116°